www.pogodaiklimat.ru

Погода и климат >> Архив погоды >> Норвегия >> Маяватн


ПОГОДА в Маяватн

  • Прогноз погоды в Маяватн
  • Монитор погоды в Маяватн

АРХИВ ПОГОДЫ в Маяватн

Время (UTC), дата Ветер
(напр.,м/с)
 
Видим.   Явления Облачность Т
(С)
Тd
(С)
f
(%)
Тe
(С)
Тes
(С)
Комфортность P
(гПа)
Po
(гПа)
Тmin
(С)
Tmax
(С)
R
(мм)
R24
(мм)
S
(см)
10 11.08 Ю 3
{9}
н/о н/о +16.9 +10.5 66 +17 +17 1001.0 964.3
11 11.08 ЮВ 3
{8}
н/о н/о +16.7 +10.8 68 +16 +16 1001.0 964.3
12 11.08 ЮВ 3
{10}
н/о н/о +17.2 +11.0 67 +17 +17 1000.7 964.0
13 11.08 Ю 2
{9}
н/о н/о +18.2 +12.0 67 +19 +19 1000.2 963.7
14 11.08 ЮЗ 2
{8}
н/о н/о +18.3 +11.9 66 +19 +19 1000.0 963.5
15 11.08 Ю 2
{8}
н/о н/о +18.8 +11.9 64 +20 +20 999.6 963.2
16 11.08 ЮЗ 2
{9}
н/о н/о +17.9 +12.1 69 +18 +18 999.9 963.4
17 11.08 В 2
{6}
н/о н/о +17.6 +12.1 70 +18 +18 1000.0 963.4
18 11.08 ЮЗ 1
{9}
н/о н/о +17.0 +12.5 75 +18 +18 1000.5 963.8 +14.9 +19.0
19 11.08 Ю 2
{7}
н/о н/о +16.9 +12.0 73 +17 +17 1000.5 963.8
20 11.08 ЮВ 2
{8}
н/о н/о +16.7 +11.8 73 +17 +17 1000.6 963.9
21 11.08 С 1
{5}
н/о н/о +16.3 +12.1 76 +17 +17 1000.8 964.0
22 11.08 ЮВ 2
{3}
н/о н/о +16.3 +12.1 76 +16 +16 1000.8 964.0
23 11.08 В 1
{3}
н/о н/о +15.5 +12.5 82 +16 +16 1001.0 964.1
00 12.08 СВ 1
{8}
н/о н/о +15.0 +12.9 87 +15 +15 1001.0 964.1
01 12.08 В 2
{4}
н/о н/о +15.8 +12.4 80 +16 +16 1000.7 963.9
02 12.08 ЮВ 1
{4}
н/о н/о +15.7 +12.6 82 +16 +16 1000.6 963.8
03 12.08 ЮВ 2
{6}
н/о н/о +16.0 +12.4 79 +16 +16 1000.4 963.6
04 12.08 Ю 2
{4}
н/о н/о +16.1 +12.1 77 +16 +16 1000.3 963.5
05 12.08 ЮВ 2
{4}
н/о н/о +16.3 +12.5 78 +16 +16 1000.3 963.5
06 12.08 ЮВ 1
{6}
н/о н/о +16.6 +12.8 78 +17 +17 999.9 963.2 +14.7 +17.1 0.2
07 12.08 Ю 1
{5}
н/о н/о +17.1 +12.4 74 +18 +18 999.8 963.2
08 12.08 ЮВ 2
{4}
н/о н/о +17.6 +12.3 71 +18 +18 999.8 963.2
09 12.08 ЮВ 2
{6}
н/о н/о +18.1 +12.6 70 +19 +19 999.8 963.3
10 12.08 ЮЗ 2
{5}
н/о н/о +17.7 +13.0 74 +18 +18 999.8 963.2
11 12.08 З 1
{4}
н/о н/о +18.1 +13.2 73 +19 +19 999.6 963.1
12 12.08 З 1
{6}
н/о н/о +18.6 +12.6 68 +20 +20 999.4 963.0
13 12.08 СВ 1
{6}
н/о н/о +18.7 +12.0 65 +20 +20 999.2 962.8
14 12.08 СВ 1
{5}
н/о н/о +19.6 +12.1 62 +22 +22 комфорт 998.9 962.6
15 12.08
{3}
н/о н/о +19.4 +12.7 65 998.8 962.5
16 12.08 ЮВ 2
{5}
н/о н/о +17.4 +13.9 80 +18 +18 999.1 962.5
17 12.08 ЮВ 3
{5}
н/о н/о +16.0 +13.5 85 +16 +16 999.7 962.9 1
18 12.08 ЮЗ 1
{6}
н/о н/о +15.3 +14.2 93 +16 +16 999.9 963.0 +15.3 +20.1 4
19 12.08 В 1
{2}
н/о н/о +15.0 +14.2 95 +15 +15 1000.1 963.2
20 12.08 СВ 1
{2}
н/о н/о +14.5 +13.7 95 +15 +15 1000.2 963.2
21 12.08 штиль 0
{1}
н/о н/о +14.2 +13.6 96 +14 +14 1000.3 963.3
22 12.08 ЮВ 1
{1}
н/о н/о +14.1 +13.5 96 +14 +14 1000.5 963.5
23 12.08 штиль 0
{1}
н/о н/о +13.7 +13.1 96 +13 +13 1000.6 963.5
00 13.08 ЮВ 1
{2}
н/о н/о +13.4 +12.9 97 +13 +13 1000.4 963.3
01 13.08 В 1
{1}
н/о н/о +13.4 +12.9 97 +13 +13 1000.3 963.2
02 13.08 СВ 1
{1}
н/о н/о +13.5 +13.0 97 +14 +14 1000.3 963.2
03 13.08 штиль 0
{1}
н/о н/о +13.4 +12.9 97 +13 +13 1000.1 963.0 0.2
04 13.08 штиль 0
{1}
н/о н/о +13.6 +13.1 97 +13 +13 1000.0 962.9
05 13.08 штиль 0
{1}
н/о н/о +14.1 +13.6 97 +14 +14 999.7 962.7
06 13.08 Ю 1
{1}
н/о н/о +14.6 +14.0 96 +15 +15 999.5 962.6 +13.3 +15.3 0.2
07 13.08 З 1
{2}
н/о н/о +15.1 +14.3 95 +16 +16 999.5 962.6
08 13.08 ЮЗ 2
{4}
н/о н/о +14.5 +13.4 93 +14 +14 999.6 962.7
09 13.08 ЮЗ 1
{2}
н/о н/о +14.6 +13.7 94 +15 +15 999.7 962.8 1
10 13.08 ЮЗ 2
{3}
н/о н/о +15.9 +14.4 91 +16 +16 999.4 962.6 0.8
11 13.08 ЮЗ 2
{4}
н/о н/о +15.1 +13.3 89 +15 +15 999.6 962.7 0.4
12 13.08 ЮЗ 2
{6}
н/о н/о +15.2 +12.9 86 +15 +15 999.7 962.8
13 13.08 ЮЗ 2
{5}
н/о н/о +15.2 +12.9 86 +15 +15 999.6 962.7
14 13.08 Ю 3
{6}
н/о н/о +14.1 +12.5 90 +13 +13 999.8 962.8 0.1
15 13.08 Ю 4
{8}
н/о н/о +13.2 +11.9 92 +11 +11 1000.2 963.1 0.3
16 13.08 Ю 3
{7}
н/о н/о +12.9 +12.0 94 +11 +11 1000.4 963.3 3
17 13.08 ЮЗ 2
{5}
н/о н/о +12.8 +11.5 92 +12 +12 1000.7 963.5 0.4
18 13.08 ЮЗ 2
{8}
н/о н/о +12.4 +11.1 92 +11 +11 1001.1 963.8 +12.4 +16.2 8
19 13.08 З 1
{5}
н/о н/о +11.9 +10.3 90 +12 +12 1001.3 964.0 0.8
20 13.08 З 2
{4}
н/о н/о +11.7 +9.8 88 +11 +11 1001.8 964.4 0.1
21 13.08 ЮВ 1
{5}
н/о н/о +11.1 +10.3 95 +11 +11 1002.2 964.7 0.5
22 13.08 Ю 2
{4}
н/о н/о +10.6 +9.7 94 +9 +9 1002.5 964.9 1
23 13.08 Ю 2
{6}
н/о н/о +10.3 +9.1 92 +9 +9 1002.7 965.1
00 14.08 Ю 3
{6}
н/о н/о +9.9 +8.5 91 +8 +8 1003.0 965.3
01 14.08 Ю 3
{6}
н/о н/о +9.5 +8.0 90 +7 +7 1003.4 965.7
02 14.08 Ю 2
{5}
н/о н/о +9.1 +7.4 89 +7 +7 1003.6 965.8
03 14.08 Ю 2
{5}
н/о н/о +9.1 +7.4 89 +7 +7 1003.7 965.9
04 14.08 ЮЗ 2
{5}
н/о н/о +9.3 +7.4 88 +8 +8 1003.8 966.0 0.2
05 14.08 Ю 2
{4}
н/о н/о +8.8 +7.6 92 +7 +7 1003.9 966.1 0.5
06 14.08 Ю 2
{6}
н/о н/о +8.9 +7.7 92 +7 +7 1003.9 966.1 +8.8 +12.4 3
07 14.08 СЗ 1
{5}
н/о н/о +9.1 +7.9 92 +8 +8 1004.1 966.3 0.8
08 14.08 ЮЗ 2
{6}
н/о н/о +9.7 +7.7 87 +8 +8 1004.2 966.5 0.1
09 14.08 Ю 1
{5}
н/о н/о +10.0 +8.3 89 +9 +9 1004.4 966.7 0.3
10 14.08 ЮЗ 1
{3}
н/о н/о +10.0 +8.1 88 +9 +9 1004.6 966.9
11 14.08 З 1
{5}
н/о н/о +10.1 +6.8 80 +10 +10 1005.0 967.3
12 14.08 З 2
{7}
н/о н/о +10.7 +6.7 76 +9 +9 1005.1 967.5
13 14.08 СЗ 1
{6}
н/о н/о +10.6 +7.8 83 +10 +10 1005.4 967.7 0.1
14 14.08 З 2
{5}
н/о н/о +10.4 +7.5 82 +9 +9 1005.8 968.1 0.6
15 14.08 С 1
{6}
н/о н/о +10.5 +7.4 81 +10 +10 1006.0 968.3
16 14.08 СЗ 1
{4}
н/о н/о +10.3 +6.8 79 +10 +10 1006.1 968.4
17 14.08 СЗ 2
{4}
н/о н/о +10.4 +6.2 75 +9 +9 1006.3 968.6
18 14.08 С 1
{6}
н/о н/о +10.2 +6.9 80 +10 +10 1006.4 968.6 +8.9 +10.8 2
19 14.08 СЗ 1
{5}
н/о н/о +10.2 +6.4 77 +10 +10 1006.7 968.9
20 14.08 штиль 0
{3}
н/о н/о +8.9 +7.2 89 +8 +8 1006.9 969.0
21 14.08 штиль 0
{1}
н/о н/о +7.9 +6.7 92 +7 +7 1007.2 969.1
22 14.08 СВ 1
{2}
н/о н/о +7.7 +6.6 93 +7 +7 1007.2 969.1
23 14.08 ЮВ 1
{1}
н/о н/о +8.1 +7.0 93 +7 +7 1007.3 969.2
00 15.08 В 1
{5}
н/о н/о +8.0 +6.9 93 +7 +7 1007.3 969.2
01 15.08 СВ 1
{2}
н/о н/о +8.2 +7.5 95 +7 +7 1007.5 969.4 0.4
02 15.08 В 1
{2}
н/о н/о +8.0 +7.3 95 +7 +7 1007.4 969.3
03 15.08 В 1
{2}
н/о н/о +8.3 +7.7 96 +7 +7 1007.3 969.3 0.1
04 15.08 В 1
{2}
н/о н/о +8.4 +7.8 96 +7 +7 1007.3 969.3 0.2
05 15.08 С 1
{2}
н/о н/о +8.8 +8.1 95 +8 +8 1007.5 969.5
06 15.08 СЗ 1
{3}
н/о н/о +9.4 +7.5 88 +9 +9 1007.6 969.7 +7.7 +10.5 0.7
07 15.08 В 1
{2}
н/о н/о +11.3 +7.4 77 +11 +11 1007.3 969.7
08 15.08 С 1
{3}
н/о н/о +13.8 +7.6 66 +14 +14 1007.0 969.7
09 15.08 З 2
{5}
н/о н/о +11.7 +6.8 72 +11 +11 1007.5 969.9
10 15.08 СЗ 2
{4}
н/о н/о +11.7 +6.2 69 +11 +11 1007.6 970.0
11 15.08 СЗ 1
{5}
н/о н/о +12.5 +6.6 67 +13 +13 1007.5 970.0
12 15.08 З 2
{5}
н/о н/о +14.3 +5.7 56 +14 +14 1007.3 970.0
13 15.08 З 2
{5}
н/о н/о +15.2 +4.3 48 +15 +15 1006.9 969.8
14 15.08 З 3
{6}
н/о н/о +14.9 +4.9 51 +14 +14 1006.9 969.7
15 15.08 З 2
{6}
н/о н/о +15.6 +4.4 47 +16 +16 1006.8 969.7
16 15.08 З 2
{5}
н/о н/о +15.3 +3.8 46 +15 +15 1006.8 969.7
17 15.08 СЗ 1
{4}
н/о н/о +15.1 +5.1 51 +16 +16 1006.7 969.6
18 15.08 С 1
{6}
н/о н/о +12.4 +4.9 60 +13 +13 1007.1 969.6 +9.4 +16.1
19 15.08 СВ 1
{2}
н/о н/о +9.7 +6.8 82 +9 +9 1007.4 969.6
20 15.08 СВ 1
{3}
н/о н/о +6.6 +5.4 92 +5 +5 1007.7 969.4
21 15.08 СВ 1
{2}
н/о н/о +5.2 +4.3 94 +4 +4 1008.0 969.5
22 15.08 СВ 1
{2}
н/о н/о +4.4 +3.7 95 +3 +3 1008.2 969.6
23 15.08 СВ 1
{2}
н/о н/о +3.3 +2.7 96 +2 +2 1008.4 969.6
00 16.08 СВ 1
{3}
н/о н/о +2.6 +2.0 96 +1 +1 1008.1 969.3
01 16.08 СВ 1
{2}
н/о н/о +2.2 +1.8 97 0 0 1008.0 969.1
02 16.08 СВ 1
{2}
н/о н/о +2.2 +1.8 97 0 0 1007.8 968.9
03 16.08 СВ 1
{2}
н/о н/о +2.9 +2.6 98 +1 +1 1007.3 968.5
04 16.08 СВ 1
{2}
н/о н/о +3.2 +2.9 98 +1 +1 1006.8 968.1
05 16.08 С 1
{2}
н/о н/о +6.1 +5.7 97 +5 +5 1006.2 967.9
06 16.08 ЮЗ 1
{2}
н/о н/о +8.6 +7.2 91 +8 +8 1005.6 967.7 +2.0 +12.4
07 16.08 СЗ 1
{2}
н/о н/о +11.6 +7.3 75 +12 +12 1004.6 967.1
08 16.08 Ю 3
{8}
н/о н/о +14.2 +6.3 59 +13 +13 1004.2 967.0
09 16.08 Ю 3
{7}
н/о н/о +14.0 +6.6 61 +13 +13 1004.4 967.2
10 16.08 Ю 2
{5}
н/о н/о +12.6 +8.5 76 +12 +12 1005.4 968.0
11 16.08 Ю 2
{5}
н/о н/о +13.6 +10.0 79 +13 +13 1005.5 968.2 0.8
12 16.08 Ю 2
{8}
н/о н/о +13.9 +9.4 74 +13 +13 1005.6 968.3
13 16.08 З 2
{4}
н/о н/о +12.1 +10.4 89 +11 +11 1006.2 968.7 3
14 16.08 З 1
{3}
н/о н/о +12.8 +10.0 83 +13 +13 1006.4 969.0 2
15 16.08 Ю 1
{2}
н/о н/о +13.1 +9.9 81 +13 +13 1006.4 969.0
16 16.08 З 2
{4}
н/о н/о +13.3 +9.6 78 +13 +13 1006.1 968.8
17 16.08 СЗ 1
{3}
н/о н/о +12.9 +8.8 76 +13 +13 1006.2 968.8
18 16.08 СВ 1
{4}
н/о н/о +12.1 +10.2 88 +12 +12 1006.1 968.6 +8.6 +15.2 5
19 16.08 СВ 1
{2}
н/о н/о +10.2 +9.1 93 +10 +10 1006.1 968.4
20 16.08 СВ 1
{2}
н/о н/о +8.0 +7.3 95 +7 +7 1006.8 968.7
21 16.08 СВ 1
{2}
н/о н/о +7.6 +7.2 97 +7 +7 1006.6 968.5
22 16.08 СВ 1
{2}
н/о н/о +7.4 +7.0 97 +6 +6 1006.5 968.4
23 16.08 С 1
{2}
н/о н/о +7.5 +7.1 97 +6 +6 1006.3 968.2
00 17.08 СВ 1
{2}
н/о н/о +8.4 +8.0 97 +7 +7 1005.9 967.9
01 17.08 СВ 1
{2}
н/о н/о +8.9 +8.5 97 +8 +8 1005.6 967.7 0.5
02 17.08 С 1
{2}
н/о н/о +9.3 +8.9 97 +9 +9 1005.2 967.4 0.2
03 17.08 СВ 1
{2}
н/о н/о +9.2 +8.8 97 +8 +8 1004.8 967.0
04 17.08 СВ 1
{2}
н/о н/о +9.2 +8.8 97 +8 +8 1004.2 966.4 0.1
05 17.08 штиль 0
{1}
н/о н/о +9.5 +8.9 96 +9 +9 1003.5 965.8
06 17.08 штиль 0
{2}
н/о н/о +10.5 +9.7 95 +10 +10 1002.9 965.3 +7.1 +12.1 0.8
07 17.08 Ю 1
{2}
н/о н/о +11.6 +10.8 95 +11 +11 1002.4 965.0
08 17.08 Ю 3
{7}
н/о н/о +14.5 +11.5 82 +14 +14 1001.6 964.6
09 17.08 Ю 3
{8}
н/о н/о +16.6 +11.1 70 +16 +16 1000.7 964.0
10 17.08 ЮЗ 2
{7}
н/о н/о +16.2 +10.7 70 +16 +16 1000.4 963.6
11 17.08 ЮЗ 3
{6}
н/о н/о +16.7 +10.8 68 +16 +16 1000.0 963.3
12 17.08 Ю 2
{8}
н/о н/о +18.1 +10.7 62 +19 +19 999.3 962.8
13 17.08 Ю 2
{8}
н/о н/о +16.9 +10.7 67 +17 +17 999.2 962.6
14 17.08 Ю 4
{11}
н/о н/о +16.8 +9.5 62 +16 +16 998.8 962.2
15 17.08 Ю 5
{10}
н/о н/о +16.0 +8.5 61 +15 +15 999.0 962.3
16 17.08 Ю 3
{13}
н/о н/о +15.4 +8.6 64 +15 +15 998.8 962.0
17 17.08 ЮВ 2
{9}
н/о н/о +14.7 +9.1 69 +14 +14 998.5 961.6
18 17.08 ЮВ 2
{13}
н/о н/о +14.6 +9.2 70 +14 +14 998.4 961.5 +10.4 +18.2
19 17.08 Ю 3
{9}
н/о н/о +14.2 +9.4 73 +13 +13 997.9 961.0
20 17.08 Ю 3
{9}
н/о н/о +13.5 +9.6 77 +12 +12 997.6 960.6
21 17.08 Ю 4
{10}
н/о н/о +13.9 +9.8 76 +12 +12 997.7 960.7
22 17.08 З 3
{8}
н/о н/о +13.5 +10.1 80 +12 +12 997.8 960.8
23 17.08 Ю 1
{6}
н/о н/о +13.2 +10.4 83 +13 +13 998.2 961.1
00 18.08 Ю 2
{10}
н/о н/о +13.3 +10.8 85 +13 +13 998.0 961.0
01 18.08 Ю 1
{5}
н/о н/о +13.6 +10.8 83 +14 +14 997.7 960.7
02 18.08 Ю 3
{7}
н/о н/о +14.1 +10.5 79 +13 +13 997.4 960.5
03 18.08 Ю 2
{8}
н/о н/о +14.8 +10.6 76 +15 +15 997.1 960.3
04 18.08 ЮЗ 2
{8}
н/о н/о +14.4 +11.0 80 +14 +14 997.3 960.4
05 18.08 Ю 2
{5}
н/о н/о +14.9 +11.1 78 +15 +15 997.2 960.4
06 18.08 Ю 3
{8}
н/о н/о +15.0 +11.6 80 +14 +14 997.4 960.6 +13.2 +15.3
07 18.08 Ю 4
{8}
н/о н/о +15.8 +11.0 73 +15 +15 997.4 960.7
08 18.08 Ю 4
{9}
н/о н/о +15.5 +10.9 74 +15 +15 997.8 961.0

 

Местоположение метеостанции Маяватн (Норвегия): широта 65.17 долгота 13.37 высота над уровнем моря 319 м.

В архиве по умолчанию представлена погода в Маяватн за последнюю неделю. Архивные данные за месяц целиком и за предыдущие месяцы, начиная с января 2011 года, Вы можете получить, выбрав интересующий диапазон дат из раскрывающегося списка и нажав кнопку "Ввод!".


*Определитесь, кто Вы:
робот инопланетянин человек

Внимание! Время в таблицах - всемирное. Для получения местного времени необходимо прибавить поправку, которая равна 1 ч.

Смотрите также архив погоды в соседних городах и на ближайших метеорологических станциях:

Погода в Лаксфорсе (Норвегия) (50 км)
Погода в Намсскугане (Норвегия) (54 км)
Погода в Стекенйокке (Швеция) (54 км)
Погода в Брённёйсунн аэропорту (Норвегия) (62 км)
Погода на Сомна-Квалёйа (Норвегия) (65 км)
Погода в Мосьен аэропорту (Норвегия) (68 км)
Погода в Гиеласе (Швеция) (81 км)
Погода в Аддеде (Швеция) (85 км)
Погода в Гартлэнде (Норвегия) (85 км)
Погода в Хьётте (Норвегия) (85 км)

Пояснения к столбцам:

Ветер - указаны скорость ветра в м/с - средняя за 10 мин, порывы в срок и между сроками (в фигурных скобках) и направление, откуда дует ветер: С - северный, СВ - северо-восточный, В - восточный, ЮВ - юго-восточный, Ю - южный, ЮЗ - юго-западный, З - западный, СЗ - северо-западный.
Видимость - горизонтальная дальность видимости в метрах или километрах. При видимости от 1 до 10 км при отсутствии осадков обычно наблюдается дымка, при ухудшении видимости до 1 км и менее - туман. В сухую погоду видимость может ухудшаться дымом, пылью или мглою.
Явления - указаны атмосферные явления, наблюдавшиеся в срок или в последний час перед сроком; фигурными скобками обозначены явления, наблюдавшиеся между сроками (за 1-3 часа до срока); квадратными скобками обозначены град или гололедные отложения с указанием их диаметра в мм.
Облачность - указаны через наклонную черту общая и нижняя облачность в баллах и высота нижней границы облаков в метрах; квадратными скобками обозначены формы облаков: Ci - перистые, Cs - перисто-слоистые, Cc - перисто-кучевые, Ac - высококучевые, As - высокослоистые, Sc - слоисто-кучевые, Ns - слоисто-дождевые, Cu - кучевые, Cb - кучево-дождевые. Подробнее классификацию облаков см. в Атласе облаков (PDF).
T - Температура воздуха - температура, измеренная на высоте 2 м над землей.
Td - Температура точки росы - температура, при понижении до которой содержащийся в воздухе водяной пар достигнет насыщения.
f - Относительная влажность воздуха - влажноcть воздуха, измеренная на высоте 2 м над землей.
Te - Эффективная температура - температура, которую ощущает одетый по сезону человек в тени. Характеристика душности погоды. При расчете учитывается влияние влажности воздуха и скорости ветра на теплоощущения человека.
Tes - Эффективная температура на солнце - температура, которую ощущает человек, с поправкой на солнечный нагрев. Характеристика знойности погоды. Зависит от высоты солнца над горизонтом, облачности и скорости ветра. Ночью, в пасмурную погоду, а также при ветре 12 м/с и более поправка равна нулю.
P - Атмосферное давление - приведенное к уровню моря атмосферное давление.
Po - Атмосферное давление - измеренное на уровне метеостанции атмосферное давление.
Tmin - Минимальная температура - минимум температуры воздуха на высоте 2 м над землей.
Tmax - Максимальная температура - максимум температуры воздуха на высоте 2 м над землей.
R - Количество осадков - Количество выпавших осадков за период времени, мм. При наведении курсора мыши на число - период времени, за который выпало указанное количество осадков.
R24 - Количество осадков - Количество выпавших осадков за 24 часа, мм.
S - Снежный покров - Высота снежного покрова, см. При наведении курсора мыши на число - состояние снежного покрова и степень покрытия местности в баллах.